This demonstration page uses our WeatherBlox Daily Observations layout. Learn more.

Left ArrowRight Arrow

Hourly Observations for March 13, 2022

Temp ( °F °C ) Dew Point ( °F °C ) Humidity (%) Winds ( mph kmh ) Pressure ( in mb ) Visibility ( mi km ) Precip ( " mm )
12:56 am 00:56 Clear 39 3.9 28 -2.2 65 65 W 6 9 29.95 1014 10 16 0.00 0.00
1:56 am 01:56 Clear 41 5 28 -2.2 60 60 WNW 7 11 29.93 1014 10 16 0.00 0.00
3:56 am 03:56 Clear 40 4.4 28 -2.2 63 63 WSW 8 13 29.92 1013 10 16 0.00 0.00
4:56 am 04:56 Clear 34 1.1 27 -2.8 76 76 SW 9 15 29.92 1013 10 16 0.00 0.00
5:56 am 05:56 Clear 33 0.6 26 -3.3 75 75 WNW 7 11 29.91 1013 10 16 0.00 0.00
6:56 am 06:56 Clear 30 -1.1 26 -3.3 85 85 NW 7 11 29.92 1013 10 16 0.00 0.00
7:56 am 07:56 Sunny 29 -1.7 25 -3.9 85 85 NW 6 9 29.92 1013 10 16 0.00 0.00
8:56 am 08:56 Sunny 34 1.1 28 -2.2 79 79 WSW 3 6 29.95 1014 10 16 0.00 0.00
9:56 am 09:56 Sunny 41 5 30 -1.1 65 65 WNW 3 6 29.94 1014 10 16 0.00 0.00
10:56 am 10:56 Sunny 47 8.3 31 -0.6 54 54 Calm 29.95 1014 10 16 0.00 0.00
11:56 am 11:56 Sunny 53 11.7 33 0.6 47 47 S 10 17 29.92 1013 10 16 0.00 0.00
12:56 pm 12:56 Sunny 59 15 33 0.6 38 38 S 8 13 29.88 1012 10 16 0.00 0.00
1:56 pm 13:56 Sunny 64 17.8 31 -0.6 29 29 SSW 12 19 29.82 1010 10 16 0.00 0.00
2:56 pm 14:56 Sunny 66 18.9 30 -1.1 26 26 S 10 17 29.78 1009 10 16 0.00 0.00
3:56 pm 15:56 Sunny 69 20.6 27 -2.8 21 21 SW 14 22 29.74 1007 10 16 0.00 0.00
4:56 pm 16:56 Sunny 69 20.6 24 -4.4 18 18 S 10 17 29.72 1006 10 16 0.00 0.00
5:56 pm 17:56 Sunny 69 20.6 23 -5 17 17 S 13 20 29.71 1006 10 16 0.00 0.00
6:56 pm 18:56 Sunny 64 17.8 30 -1.1 28 28 S 15 24 29.74 1007 10 16 0.00 0.00
7:56 pm 19:56 Clear 55 12.8 31 -0.6 40 40 SE 3 6 29.77 1008 10 16 0.00 0.00
8:56 pm 20:56 Clear 44 6.7 26 -3.3 49 49 ESE 10 17 29.78 1008 10 16 0.00 0.00
9:56 pm 21:56 Clear 49 9.4 28 -2.2 44 44 SE 10 17 29.77 1008 10 16 0.00 0.00
10:56 pm 22:56 Clear 44 6.7 25 -3.9 47 47 SSE 7 11 29.77 1008 10 16 0.00 0.00
11:56 pm 23:56 Clear 42 5.6 23 -5 47 47 S 6 9 29.76 1008 10 16 0.00 0.00

Powered by AerisWeather